Regional Weather Roundup
Issued by NWS

Home | Current Version | Previous Version | Text Only | Print | Product List | Glossary On
Versions: 1 2 3 4 5 6 7 8 9 10 11 12 13 14 15 16 17 18 19 20 21 22 23 24 25 26 27 28 29 30 31 32 33 34 35 36 37 38 39 40 41 42 43 44
000
ASUS45 KCYS 310610
RWRWY

WYOMING REGIONAL WEATHER ROUNDUP
NATIONAL WEATHER SERVICE CHEYENNE WY
1200 AM MDT SAT JUL 31 2021

NOTE:  "FAIR" INDICATES FEW OR NO CLOUDS BELOW 12,000 FEET
WITH NO SIGNIFICANT WEATHER AND/OR OBSTRUCTIONS TO VISIBILITY.

WYZ001-310700-
YELLOWSTONE NATIONAL PARK

CITY           SKY/WX    TMP DP  RH WIND       PRES   REMARKS
LK YELLOWSTONE   N/A     55  50  83 CALM      30.51S
6HR MIN TEMP:  54; 6HR MAX TEMP:  68;

W YELLOWSTONE  NOT AVBL

$$
WYZ002>013-054>058-071-098>099-310700-
NORTHERN WYOMING

CITY           SKY/WX    TMP DP  RH WIND       PRES   REMARKS
JACKSON        CLOUDY    60  54  80 VRB3      30.39S
CODY           FAIR      68  57  68 CALM      30.32R
GREYBULL       FAIR      73  56  54 E5        30.22R
6HR MIN TEMP:  71; 6HR MAX TEMP:  84;

WORLAND        FAIR      69  60  73 W3        30.25R
6HR MIN TEMP:  67; 6HR MAX TEMP:  86; 6HR PCP:  0.26;

SHERIDAN       FAIR      68  61  78 CALM      30.24S
6HR MIN TEMP:  68; 6HR MAX TEMP:  89; 6HR PCP:  0.07;

BUFFALO        FAIR      70  53  54 W5        30.33S
6HR MIN TEMP:  68; 6HR MAX TEMP:  84; 6HR PCP: TRACE;

GILLETTE       FAIR      67  57  70 CALM      30.27S HAZE
6HR MIN TEMP:  67; 6HR MAX TEMP:  87;

HULETT         FAIR      68  57  68 CALM      30.30R HAZE
NEWCASTLE      FAIR      64  54  68 N6        30.29R

$$
WYZ014>020-022>026-101>103-310700-
CENTRAL WYOMING

CITY           SKY/WX    TMP DP  RH WIND       PRES   REMARKS
BIG PINEY      LGT RAIN  59  56  89 N6        30.43S
6HR MIN TEMP:  59; 6HR MAX TEMP:  79; 6HR PCP:  0.10;

PINEDALE       CLOUDY    59  54  82 W7        30.44S
DUBOIS         RAIN      54  52  94 E3        30.42S
LANDER         LGT RAIN  63  61  93 CALM      30.39S FOG
6HR MIN TEMP:  62; 6HR MAX TEMP:  78; 6HR PCP:  0.62;

RIVERTON       CLOUDY    65  60  84 SW12      30.37S
6HR MIN TEMP:  65; 6HR MAX TEMP:  78;

CASPER         MOCLDY    67  61  81 W5        30.34R
6HR MIN TEMP:  67; 6HR MAX TEMP:  73; 6HR PCP:  0.02;

DOUGLAS        FAIR      66  57  72 E5        30.32S
6HR MIN TEMP:  65; 6HR MAX TEMP:  81; 6HR PCP: TRACE;


$$
WYZ021-027>030-104>119-310700-
SOUTHERN WYOMING

CITY           SKY/WX    TMP DP  RH WIND       PRES   REMARKS
EVANSTON       FAIR      64  53  67 E7        30.39R
6HR MIN TEMP:  64; 6HR MAX TEMP:  75;

KEMMERER       FAIR      59  52  77 N9G18     30.43R
ROCK SPRINGS   FAIR      61  54  77 E14       30.41R
6HR MIN TEMP:  61; 6HR MAX TEMP:  73; 6HR PCP: TRACE;

DIXON          CLOUDY    64  53  68 E9        30.42R
RAWLINS        RAIN      61  56  83 NE7       30.46R
6HR MIN TEMP:  61; 6HR MAX TEMP:  82; 6HR PCP:  0.39;

SARATOGA       CLOUDY    61  61 100 W6        30.46R
LARAMIE        CLOUDY    61  55  81 N7        30.44S
6HR MIN TEMP:  61; 6HR MAX TEMP:  68;

CHEYENNE       CLOUDY    63  57  81 NE6       30.38R
6HR MIN TEMP:  63; 6HR MAX TEMP:  72; 6HR PCP:  0.01;

TORRINGTON     LGT RAIN  67  62  84 N15G25    30.24F
6HR MIN TEMP:  66; 6HR MAX TEMP:  85; 6HR PCP:  0.02;

PINE BLUFFS    TSTM      63  59  88 W12       30.33R

$$



USA.gov is the U.S. government's official web portal to all federal, state and local government web resources and services.